Flag for Australia Weather past 2 weeks in Port Hedland, Western Australia, Australia

Now
64 °F

Clear.


Feels Like: 64 °F
Forecast: 67 / 81 °F
Wind: 6 mph from Southwest

Location: Port Hedland Pardoo

Current Time: Sep 2, 2015 at 11:31:26 PM

Latest Report: Sep 2, 2015 at 11:00 PM


Visibility: N/A

Pressure: 30.04 "Hg

Humidity: 68%

Dew point: 54 °F

Location of Port HedlandLocation

Historic Weather in Port Hedland — Graph

°F

Port Hedland temperature yesterday

Maximum temperature yesterday: 90 °F (at 2:00 PM)
Minimum temperature yesterday: 63 °F (at 4:30 AM)
Average temperature yesterday: 74 °F

Past Weeks' High & Low Weather Summary

 TemperatureHumidityPressure
High91 °F (Aug 19, 12:00 PM)100% (Aug 20, 7:00 AM)30.09 "Hg (Aug 20, 7:00 AM)
Low55 °F (Aug 24, 6:00 AM)9% (Aug 24, 11:00 AM)29.83 "Hg (Aug 20, 3:30 PM)
Average71 °F56%29.98 "Hg
* Reported Aug 18 10:00 PM — Sep 2 10:00 PM, Port Hedland, Weather by CustomWeather, © 2015

Note: Actual official high and low records may vary slightly from our data, if they occured in-between our weather recording intervals... More about our weather records

Advertising

Port Hedland weather history for previous 24 hours

 ConditionsComfort  
Time TempWeatherWind HumidityBarometerVisibility
10:00 PM
Wed, Sep 2
64 °FClear.6 mph73%30.04 "HgN/A
9:00 PM66 °FClear.5 mph68%30.04 "HgN/A
8:30 PM66 °FClear.7 mph73%30.04 "HgN/A
8:00 PM68 °FClear.5 mph64%30.01 "HgN/A
7:30 PM68 °FClear.6 mph64%30.01 "HgN/A
7:00 PM70 °FClear.5 mph64%29.98 "HgN/A
6:30 PM70 °FClear.6 mph64%29.98 "HgN/A
6:00 PM73 °FClear.8 mph53%29.98 "HgN/A
5:30 PM75 °FClear.12 mph44%29.98 "HgN/A
5:00 PM77 °FClear.14 mph39%29.95 "HgN/A
4:30 PM77 °FSunny.14 mph39%29.95 "HgN/A
4:00 PM79 °FSunny.15 mph32%29.95 "HgN/A
3:30 PM81 °FSunny.14 mph30%29.95 "HgN/A
3:00 PM82 °FSunny.13 mph26%29.95 "Hg10 mi
2:30 PM82 °FSunny.15 mph28%29.95 "Hg10 mi
2:00 PM81 °FSunny.15 mph34%29.98 "Hg10 mi
1:30 PM84 °FSunny.18 mph16%29.98 "Hg10 mi
1:00 PM84 °FSunny.15 mph16%29.98 "Hg10 mi
12:00 PM86 °FSunny.16 mph12%30.01 "Hg10 mi
11:30 AM82 °FSunny.15 mph14%30.01 "Hg10 mi
11:00 AM82 °FSunny.18 mph13%30.04 "Hg10 mi
10:30 AM81 °FSunny.17 mph15%30.04 "HgN/A
10:00 AM79 °FSunny.17 mph15%30.04 "Hg10 mi
9:30 AM77 °FSunny.17 mph15%30.04 "Hg10 mi
9:00 AM77 °FSunny.20 mph15%30.04 "Hg10 mi
8:30 AM75 °FSunny.20 mph16%30.04 "Hg10 mi
8:00 AM70 °FSunny.8 mph27%30.04 "Hg10 mi
7:30 AM64 °FSunny.6 mph40%30.01 "Hg10 mi
7:00 AM61 °FSunny.6 mph45%30.01 "Hg10 mi
6:30 AM57 °FSunny.8 mph55%29.98 "Hg10 mi
5:30 AM59 °FSunny.8 mph63%29.95 "HgN/A
5:00 AM57 °FClear.7 mph88%29.95 "HgN/A
4:00 AM59 °FClear.8 mph88%29.95 "HgN/A
3:30 AM59 °FClear.7 mph94%29.95 "HgN/A
3:00 AM59 °FClear.6 mph94%29.95 "HgN/A
2:00 AM61 °FClear.1 mph94%29.95 "HgN/A
1:30 AM64 °FClear.5 mph83%29.98 "HgN/A
1:00 AM64 °FClear.5 mph83%29.98 "HgN/A
12:30 AM66 °FClear.6 mph83%29.98 "HgN/A
12:00 AM64 °FClear.5 mph83%29.98 "HgN/A
11:00 PM
Tue, Sep 1
66 °FClear.2 mph83%29.98 "HgN/A
Weather by CustomWeather, © 2015

See weather overviewHow to use our weather pages